Skip Page Navigation
NASA JPL Caltech
NASA Logo - Jet Propulsion Laboratory + View the NASA Portal
+ Near-Earth Object (NEO) Program
Search JPL
JPL Home Earth Solar System Stars & Galaxies Technology
JPL Solar System Dynamics
BODIES ORBITS EPHEMERIDES TOOLS PHYSICAL DATA DISCOVERY FAQ SITE MAP
JPL Small-Body Database Browser
Search: [ help ]  
11311 Peleus (1993 XN2)
Classification: Apollo [NEO]          SPK-ID: 2011311
Ephemeris | Orbit Diagram | Orbital Elements | Physical Parameters | Discovery Circumstances | Close-Approach Data ]

[ hide orbit diagram ]
Orbit Diagram
Note: Make sure you have Java enabled on your browser to see the applet. This applet is provided as a 3D orbit visualization tool. The applet was implemented using 2-body methods, and hence should not be used for determining accurate long-term trajectories (over several years or decades) or planetary encounter circumstances. For accurate long-term ephemerides, please instead use our Horizons system.
Orbit Viewer

Additional Notes: the orbits shown in the applet are color coded. The planets are white lines, and the asteroid/comet is a blue line. The bright white line indicates the portion of the orbit that is above the ecliptic plane, and the darker portion is below the ecliptic plane. Likewise for the asteroid/comet orbit, the light blue indicates the portion above the ecliptic plane, and the dark blue the portion below the ecliptic plane.

Orbit Viewer applet originally written and kindly provided by Osamu Ajiki (AstroArts), and further modified by Ron Baalke (JPL).


Orbital Elements at Epoch 2456400.5 (2013-Apr-18.0) TDB
Reference: JPL 30 (heliocentric ecliptic J2000)
 Element Value Uncertainty (1-sigma)   Units 
e .5357874453780583 1.2652e-07  
a 2.116849498434578 4.5166e-08 AU
q .9826681134184915 2.7564e-07 AU
i 25.43604485061545 2.2842e-05 deg
node 59.52591366773014 2.6382e-05 deg
peri 313.1412345862674 3.546e-05 deg
M 122.9740290615183 7.0713e-05 deg
tp 2456016.223079659578
(2012-Mar-29.72307966)
0.0002089 JED
period 1124.950466194344
3.08
3.6003e-05
9.857e-08
d
yr
n .3200140902362247 1.0242e-08 deg/d
Q 3.251030883450665 6.9365e-08 AU
  Orbit Determination Parameters
   # obs. used (total)      186  
   data-arc span      7061 days (19.33 yr)  
   first obs. used      1993-12-10  
   last obs. used      2013-04-10  
   planetary ephem.      DE405  
   SB-pert. ephem.      SB405-CPV-2  
   condition code      0  
   fit RMS      .4787  
   data source      ORB  
   producer      Otto Matic  
   solution date      2013-Apr-29 13:43:59  

Additional Information
 Earth MOID = .0964215 AU 
 T_jup = 3.431 
[ show covariance matrix ]

Ephemeris | Orbit Diagram | Orbital Elements | Physical Parameters | Discovery Circumstances | Close-Approach Data ]

Physical Parameter Table
Parameter Symbol Value Units Sigma Reference Notes
absolute magnitude H 16.5 mag n/a PDS3 (MPC 35568)  
SMASSII spectral type spec_B Sq   n/a EAR-A-5-DDR-TAXONOMY-V4.0 based on a high-resolution spectrum by Xu et al. (1995) or Bus and Binzel (2002)

11311 Peleus           Discovered 1993 Dec. 10 by C. S. Shoemaker and E. M. Shoemaker at Palomar.
Peleus, king of the Myrmidons in Thessaly, helped Heracles conquer Troy. He was married to the goddess Thetis---the only instance where a goddess married a mortal. He was also the father of Achilles. Too old to take part in the Trojan War, he gave his golden armor to his son.
NOTE: some special characters may not display properly (any characters within {} are an attempt to place the proper accent above a character)
Reference: 20000726/MPCPages.arcLast Updated: 2013-03-29

[ show close-approach data ]
Ephemeris | Orbit Diagram | Orbital Elements | Physical Parameters | Discovery Circumstances | Close-Approach Data ]
ABOUT SSD CREDITS/AWARDS PRIVACY/COPYRIGHT GLOSSARY LINKS
FirstGov 2013-May-22 14:26 UT
(server date/time)  
NASA Home Page
Site Manager:   Donald K. Yeomans
Webmaster  Alan B. Chamberlin